Vorticity
8 8 8 8 8 8 8 8 7 8 7 7 7 7 7 6 6 5 5 4 4 3 2 2 2 4 5 6 8 9 11 10 9 7 4 6 10 12 9 3 0 1 2 3 10 16 14 7 3 5 9 7 5 6 6 8 5 1 -2 2 9 -0 0 5 10 10 -8 13 24 3 6 5 4 6 3 4 2 4 6 3 1 4 4 -0 5 8 6 5
10 9 9 9 9 9 9 9 8 9 9 8 9 8 8 7 7 6 6 6 6 5 4 3 2 2 3 4 6 7 9 10 11 10 5 5 8 12 12 6 -1 1 3 0 4 11 13 10 5 2 4 7 5 4 7 6 7 5 1 3 -1 -0 11 3 4 3 -10 15 24 2 5 7 4 5 4 4 4 7 5 3 4 4 6 2 5 10 9 4
10 10 10 10 10 10 9 10 9 9 9 9 9 9 9 9 9 8 7 7 7 7 6 5 5 4 2 2 4 6 7 8 10 11 7 6 5 8 12 9 -0 0 4 1 3 7 10 12 9 5 1 4 5 4 5 4 9 3 2 6 -8 5 24 5 1 3 -10 4 11 4 6 7 6 6 5 5 5 7 5 4 4 3 5 5 8 10 11 7
10 10 10 10 10 10 10 10 10 10 9 9 10 10 10 9 10 9 9 8 7 7 7 7 6 6 5 3 3 3 5 6 8 9 9 9 6 5 9 11 5 1 3 2 3 4 8 11 10 11 5 3 4 5 5 2 8 3 1 -1 -15 8 23 0 1 6 -0 2 5 7 5 7 10 5 5 7 4 4 6 5 2 3 5 5 8 7 10 12
11 11 11 11 10 10 10 10 10 10 10 10 10 10 10 10 10 10 10 10 9 8 7 8 7 7 7 6 4 2 3 4 6 7 8 11 10 7 6 8 9 6 5 3 4 3 4 8 10 13 10 6 3 4 6 2 6 3 -1 -3 -11 3 13 9 9 2 4 5 1 5 5 9 9 3 7 6 5 9 10 4 1 5 6 6 7 4 8 11
11 11 11 10 10 10 10 10 9 10 9 10 10 10 10 9 10 10 11 11 11 10 9 9 8 8 7 7 8 5 3 3 5 6 6 9 10 10 8 6 8 9 9 6 6 4 2 3 6 11 10 9 5 2 5 4 5 3 1 1 -0 -0 1 15 15 1 6 3 3 10 7 8 6 4 6 4 10 19 16 7 5 6 5 5 4 4 7 8
6 6 7 7 7 8 8 8 8 9 9 9 9 9 9 9 9 9 10 11 11 11 10 10 9 9 8 7 8 7 7 5 4 5 5 7 8 9 10 9 7 7 10 10 8 6 4 2 1 6 9 10 8 3 4 5 5 5 4 2 6 5 -3 6 10 3 5 3 9 15 9 5 3 4 5 4 4 3 3 6 9 6 3 6 7 6 6 6
5 5 5 5 5 5 5 5 5 6 7 7 8 8 8 8 8 8 8 9 10 11 10 10 10 11 10 9 8 7 8 8 5 3 3 6 7 7 8 10 9 7 7 10 10 7 7 4 1 3 5 7 9 7 6 4 3 4 5 3 4 7 2 4 5 2 4 5 7 7 4 4 4 4 3 4 4 1 2 4 7 7 5 7 7 4 5 6
6 5 6 6 6 6 6 6 5 5 5 5 5 5 6 7 7 7 7 8 8 9 10 10 10 10 11 11 10 9 9 9 7 6 4 3 4 5 7 8 9 9 7 7 10 10 8 6 4 3 2 5 8 10 8 4 5 4 3 5 3 4 5 4 3 2 2 4 4 1 0 3 4 4 2 3 5 7 7 4 5 6 7 7 6 4 6 8
5 5 5 5 6 6 6 7 7 7 7 6 6 5 5 5 5 5 5 6 6 7 8 9 9 8 9 11 11 11 11 10 9 9 6 4 2 3 6 7 8 10 9 6 7 9 10 7 5 5 5 6 6 9 10 6 7 6 2 3 3 3 4 2 2 3 3 2 2 1 1 4 4 1 3 4 4 5 3 3 6 6 9 7 7 8 6 8
5 5 5 5 6 6 6 7 7 7 8 8 8 8 7 6 5 5 4 4 4 5 6 7 8 8 7 9 10 11 12 11 10 9 8 7 4 3 4 6 7 8 10 9 7 6 10 9 6 5 5 4 1 5 9 7 6 8 6 4 3 3 3 4 3 2 6 5 2 0 -1 4 5 1 2 4 8 8 5 6 6 7 10 7 7 9 7 7
6 6 5 5 6 6 6 7 7 7 8 8 9 9 9 9 9 8 6 5 5 4 4 4 5 6 7 8 7 9 11 12 12 12 11 9 7 5 4 4 5 6 8 10 9 6 7 10 9 7 4 4 2 2 6 7 6 8 8 6 5 3 1 3 3 1 4 6 6 4 0 3 6 4 3 3 7 6 4 6 7 8 7 7 8 6 6 7
7 7 6 5 5 6 6 6 6 6 7 7 7 8 9 9 10 10 10 9 7 6 5 5 4 4 4 6 6 7 9 10 11 12 13 12 9 7 5 4 4 4 6 8 9 8 6 7 11 11 6 7 5 2 5 5 5 8 7 7 7 6 4 2 2 2 2 3 6 6 2 4 6 5 2 1 6 7 3 3 7 9 7 8 9 5 7 7
7 7 6 6 6 7 7 6 6 5 6 7 7 8 8 8 9 10 11 11 10 9 8 7 6 5 4 4 4 6 7 7 9 10 12 13 12 10 7 6 4 3 4 6 7 8 8 7 8 10 9 10 6 3 8 5 3 7 5 5 8 8 9 6 4 3 2 0 2 4 4 4 4 7 6 -2 5 11 5 5 8 8 8 9 6 2 7 7
6 7 7 8 8 8 8 7 7 7 7 8 8 8 8 9 9 9 10 10 11 11 10 10 9 7 6 4 4 4 4 5 6 7 9 11 13 12 10 8 6 5 4 4 6 6 9 8 6 7 9 12 9 5 10 7 4 6 4 5 6 8 9 9 9 8 5 2 3 2 1 3 1 7 13 3 3 9 5 6 8 9 10 8 7 3 5 8
6 7 8 9 9 9 9 9 9 9 9 8 7 7 7 7 7 8 9 9 10 10 11 11 11 10 9 7 6 5 5 5 5 5 7 8 10 12 12 11 8 7 6 4 5 5 7 8 8 7 6 8 10 9 11 8 4 5 4 5 6 8 8 4 8 14 11 6 6 3 0 4 -2 -1 11 8 9 10 6 6 5 14 17 5 3 4 5 9
6 7 8 9 9 8 9 9 10 10 9 8 6 5 5 5 6 6 7 7 8 9 10 10 11 11 11 11 9 7 6 5 4 4 5 6 8 10 11 12 11 9 8 5 5 5 5 6 7 8 6 6 8 9 11 7 6 6 4 5 6 9 12 4 2 14 18 11 8 5 1 4 -1 3 16 10 7 5 4 10 8 11 10 -2 3 6 6 9
6 6 7 8 8 7 6 6 7 8 8 9 9 8 7 6 5 4 5 6 6 7 8 9 10 10 10 11 11 10 9 7 6 5 5 5 5 7 8 10 12 11 10 8 6 4 4 5 6 8 7 6 6 8 11 11 9 7 4 4 5 6 12 10 3 7 15 13 11 10 7 8 1 0 11 8 4 6 5 6 9 12 4 -4 7 9 6 8
6 6 7 8 8 8 6 4 3 4 5 6 7 8 8 7 5 4 5 8 10 8 5 4 6 8 10 11 11 11 11 10 9 7 6 5 5 5 6 7 9 11 12 11 9 6 4 4 4 6 8 9 8 7 9 12 13 10 5 3 4 3 5 9 7 7 13 13 10 9 5 10 9 -9 -10 -1 5 8 7 5 11 18 8 -1 7 8 5 6
10 9 9 9 9 9 10 8 6 5 4 3 3 5 7 8 7 6 6 8 11 13 10 5 1 1 3 6 9 11 12 12 10 9 8 7 6 5 5 6 7 8 10 11 12 10 7 5 3 5 7 8 9 8 7 8 10 11 10 7 4 4 4 7 7 1 5 10 10 14 5 2 15 8 -6 0 7 6 5 9 13 9 -0 0 7 8 6 6
11 10 11 11 10 10 11 12 12 10 9 8 7 7 7 9 8 7 7 7 9 12 13 12 8 5 2 1 3 5 9 11 11 10 9 8 7 6 5 5 6 6 8 9 11 12 10 7 5 5 5 5 6 7 7 5 7 10 13 11 6 5 5 6 7 2 7 11 3 10 15 4 8 13 5 2 3 5 5 6 8 3 0 6 7 6 5 7
10 11 11 11 12 12 13 14 14 14 13 13 13 13 12 12 11 9 9 9 9 10 10 11 12 11 10 8 6 5 6 8 10 10 10 10 8 7 5 4 4 5 6 6 7 10 11 11 10 8 5 4 5 6 6 4 5 8 12 12 8 5 5 2 4 4 11 22 14 5 10 9 8 9 7 5 4 7 4 -0 3 1 -0 5 5 8 8 5
10 11 10 11 12 13 14 14 14 14 14 13 14 14 13 13 12 12 11 10 10 11 11 10 10 10 10 11 11 11 10 7 8 9 9 10 8 7 6 6 6 5 5 5 5 7 10 13 14 13 8 5 5 5 7 6 4 6 8 12 11 7 6 3 5 5 -2 1 6 7 9 7 10 14 9 6 7 8 0 -6 -1 -2 -1 7 6 7 9 7
11 12 11 11 11 13 13 12 13 14 13 14 14 13 13 13 13 13 12 11 10 10 11 11 10 11 9 9 10 13 15 13 11 10 8 8 8 9 9 8 6 5 5 5 5 6 7 10 12 13 11 8 5 4 6 6 5 6 5 9 13 10 9 3 3 13 16 12 1 -5 5 7 3 8 12 10 6 5 5 3 3 1 3 7 6 6 7 8
12 12 11 10 10 11 12 13 15 14 14 16 14 13 13 12 12 13 12 14 13 10 12 13 11 11 11 11 11 13 14 15 15 15 12 7 6 9 9 8 6 5 5 4 5 5 4 6 8 9 11 9 6 4 5 6 6 7 5 6 9 11 11 5 -5 -10 1 30 33 7 2 6 3 1 2 9 11 6 4 7 8 8 7 4 2 6 6 5
12 11 11 11 10 8 11 15 15 14 15 13 11 12 12 11 13 13 10 13 15 11 13 14 11 11 11 9 11 12 12 13 16 18 19 14 8 7 8 10 10 9 7 5 4 3 3 5 5 7 10 11 10 6 3 5 6 6 5 4 5 9 10 9 7 -9 -25 -6 19 20 14 3 0 9 7 3 9 12 7 5 5 3 1 3 3 2 5 6
12 12 12 13 12 11 10 11 11 12 13 11 11 11 11 11 11 9 9 13 14 11 12 15 14 14 14 11 11 12 12 13 14 15 17 19 15 10 8 9 10 10 10 7 4 3 4 4 4 5 7 9 12 11 7 3 3 6 7 4 3 7 11 9 9 9 -0 -9 -10 3 24 19 0 3 14 10 1 3 8 5 2 4 2 2 5 5 4 5
11 12 13 13 13 14 12 10 10 11 11 10 12 12 10 11 10 10 13 11 10 11 11 12 14 15 16 17 17 16 16 16 16 16 15 18 20 15 12 12 10 8 6 6 8 7 6 5 4 5 6 7 10 13 12 5 1 3 6 8 3 1 8 11 8 8 10 10 -1 -12 1 25 17 -5 2 22 20 7 3 4 2 4 9 5 4 8 6 4
12 12 12 11 11 11 11 11 10 9 10 10 11 11 11 10 8 9 11 8 9 16 15 12 13 15 15 16 15 14 15 14 16 18 16 17 19 17 16 15 11 10 8 6 7 6 5 6 5 4 5 5 8 14 15 9 4 2 2 6 7 3 2 6 9 10 8 10 12 1 -12 -0 12 7 -1 1 14 15 1 1 10 4 2 5 5 6 6 3
12 11 10 9 9 10 10 10 10 10 11 11 11 12 12 12 10 7 8 10 11 12 13 13 15 17 16 15 15 14 13 13 14 15 16 17 18 17 20 19 16 18 18 14 10 8 7 6 4 4 6 5 4 8 12 11 7 3 2 3 6 7 5 5 6 7 12 13 8 7 3 -6 -3 17 21 -8 -12 18 15 -2 5 8 2 6 5 0 4 6
10 10 11 12 12 14 13 12 13 13 12 12 12 12 12 15 12 5 5 8 7 8 10 11 12 11 10 10 12 12 11 12 11 11 13 14 15 17 18 20 19 16 16 16 14 12 11 10 7 3 3 5 5 5 6 10 12 7 4 3 4 5 4 7 8 4 8 14 9 5 7 0 -10 1 25 17 -7 6 24 11 4 9 6 6 10 2 2 10
13 14 15 16 16 17 17 16 17 17 18 19 19 20 20 20 13 7 8 7 6 10 11 11 11 10 11 10 9 9 8 8 7 7 9 9 12 15 13 16 19 15 17 22 21 18 14 10 10 10 7 4 4 6 5 4 9 12 7 3 4 5 4 3 6 10 10 7 6 8 7 5 -0 -8 1 19 14 5 16 18 7 10 13 5 6 8 3 5
15 15 15 16 16 18 19 22 24 24 23 21 21 23 21 16 9 4 6 6 6 9 6 6 7 6 8 8 9 11 9 8 8 7 8 9 8 9 8 13 19 18 20 20 18 21 24 19 10 5 7 9 3 3 7 4 5 12 10 6 5 4 6 4 3 8 8 4 5 7 10 8 6 3 -8 -12 1 9 14 25 13 -1 14 17 2 2 5 5
15 15 16 17 19 21 22 23 21 16 12 9 9 10 8 8 7 5 6 7 9 9 5 6 8 7 9 7 7 11 10 9 10 8 9 10 11 13 13 12 11 11 16 19 15 14 22 34 37 21 4 7 9 2 5 8 5 8 11 10 8 4 3 6 13 16 5 0 11 11 10 11 6 8 5 -13 -13 -9 -13 16 34 3 -3 16 11 5 8 6
18 20 21 20 20 19 16 14 11 7 7 8 8 9 10 11 10 8 9 9 8 9 9 10 10 10 12 10 9 10 9 9 10 10 10 8 10 10 7 8 11 10 12 20 20 13 6 10 37 56 34 11 10 4 1 8 9 9 9 7 9 9 2 -5 5 22 15 3 18 26 12 7 6 7 11 3 2 1 -24 -22 14 14 -7 -1 6 8 11 10
22 21 20 18 16 15 12 11 10 10 12 11 11 13 11 9 6 6 9 10 9 10 11 13 14 13 12 11 13 11 9 11 10 10 12 10 8 3 -1 4 16 16 10 11 12 15 13 -8 -6 38 53 30 20 12 1 3 6 12 19 13 5 10 11 -3 -9 5 9 -3 10 38 36 17 7 5 11 11 6 13 4 -18 -7 11 2 -4 -1 -2 1 9
19 17 16 15 13 12 12 11 11 12 11 10 13 13 9 9 11 12 14 13 12 12 13 13 12 12 11 10 14 14 13 15 14 9 10 10 7 7 7 7 10 11 6 11 12 9 15 2 -20 -0 26 29 32 26 14 11 -3 -6 28 45 20 5 12 7 -0 5 7 -8 -15 5 24 26 24 14 7 12 9 9 16 9 5 11 6 -2 -1 -3 -6 2
17 15 13 12 12 13 13 14 15 14 15 16 16 13 12 15 14 14 14 13 13 13 12 10 5 7 14 13 10 11 11 12 12 9 9 11 9 7 10 8 8 9 6 10 13 7 11 13 4 2 -2 2 29 39 31 36 14 -33 -16 43 52 29 21 8 -6 -2 6 3 -1 3 -1 -6 14 29 19 12 10 6 10 17 16 13 11 7 3 3 1 -1
15 12 13 14 15 17 17 18 17 15 16 17 13 10 12 14 12 14 15 14 18 16 12 14 14 12 15 13 8 9 8 6 12 12 8 11 12 8 9 10 9 9 9 9 8 7 13 11 10 17 4 -15 5 30 29 37 47 6 -41 -20 29 45 44 35 12 -4 -4 -7 -7 18 28 -1 -13 4 12 14 17 11 6 13 22 19 14 13 7 4 6 1
12 13 17 18 16 16 16 15 14 13 14 13 9 8 10 10 10 12 11 12 16 15 12 15 18 13 11 11 11 13 11 7 12 13 6 8 12 10 8 8 9 8 8 11 8 7 13 10 8 20 26 6 -13 3 21 12 27 51 8 -44 -27 10 24 38 37 13 1 -7 -27 -11 32 39 26 21 12 4 7 16 16 9 15 22 16 14 11 9 10 7
15 17 16 14 12 13 13 11 10 10 10 9 8 8 8 8 9 9 8 10 10 10 11 12 12 13 13 12 8 8 9 8 10 10 8 10 15 18 16 7 4 6 4 6 7 7 7 10 12 8 13 24 8 6 31 16 -3 40 56 3 -26 -8 6 23 43 30 10 5 -16 -29 -6 20 36 56 65 45 10 1 15 15 10 13 13 11 10 11 13 10
15 15 12 9 10 10 8 6 7 7 7 8 7 7 7 7 8 8 8 10 9 10 12 9 6 9 12 11 8 10 11 9 11 11 10 13 15 18 20 13 5 3 2 1 3 8 6 1 8 4 -10 -2 6 4 16 13 -7 8 45 37 -4 -9 7 13 32 47 35 23 5 -21 -24 -10 -7 -1 26 56 45 11 1 6 9 12 12 13 12 11 14 13
11 12 8 7 8 6 6 7 7 8 8 8 7 7 8 8 8 9 10 10 10 10 9 7 8 8 7 6 5 10 13 12 15 17 13 12 14 15 13 11 7 2 2 5 3 7 11 4 4 12 5 -7 -11 -5 1 -1 -12 -17 9 33 7 -16 -2 2 8 34 41 38 36 11 -15 -18 -14 -15 -10 9 26 27 15 3 4 12 12 12 15 13 10 12
11 10 5 5 7 6 8 9 9 10 9 8 8 8 9 9 8 10 12 11 10 9 8 9 6 2 6 12 16 21 27 30 31 31 24 15 15 23 22 12 9 6 3 8 9 3 5 8 4 2 11 12 1 6 17 14 11 0 -7 15 21 -2 -9 -3 1 9 12 18 31 35 28 7 -16 -5 26 26 5 9 22 14 6 11 11 12 18 19 16 12
10 8 2 5 9 8 9 11 10 10 8 7 9 9 9 10 11 11 12 11 11 10 9 9 11 17 29 37 35 30 30 31 28 26 27 25 24 32 35 24 19 19 12 8 10 6 -1 4 10 2 0 9 8 12 19 12 17 21 0 1 29 23 -3 -8 -2 2 16 19 -3 -7 28 42 4 -19 16 48 36 19 20 18 15 11 5 3 5 12 20 19
8 6 3 6 11 10 10 12 10 9 8 8 9 9 8 9 11 11 12 12 11 11 14 22 32 39 39 33 26 24 25 26 27 26 26 25 20 22 30 30 28 31 27 17 13 13 5 -1 4 7 3 1 -0 6 15 3 -4 11 10 -3 14 27 13 3 -5 -12 11 34 8 -21 -5 23 23 0 -6 11 19 11 4 7 21 27 17 9 3 2 10 12
5 5 4 7 11 10 10 11 10 8 9 9 8 8 7 8 10 10 11 12 13 22 35 41 42 37 28 25 24 25 26 27 30 34 34 30 21 16 20 21 22 31 35 29 24 22 17 10 5 6 7 2 -5 -4 11 16 2 2 8 -2 -3 7 7 15 18 -8 -11 16 14 -6 -9 1 8 8 15 28 20 4 3 2 9 26 26 14 7 4 9 10
5 4 5 7 10 10 9 10 10 9 10 10 9 7 7 8 10 8 10 15 23 35 40 32 28 28 25 24 21 15 16 22 22 21 22 26 26 25 26 20 15 22 31 31 30 27 22 19 15 11 7 2 1 0 4 17 18 9 8 8 8 3 -14 1 35 20 -7 3 8 -9 -11 2 -1 -16 4 44 34 6 15 13 -4 8 18 8 3 5 11 16
5 4 5 8 8 8 8 9 10 11 12 11 8 7 7 8 10 9 13 23 28 27 19 11 15 24 22 20 20 13 12 18 18 14 13 16 20 23 27 28 20 17 19 23 27 29 28 25 20 20 19 8 4 5 -1 2 11 10 8 8 13 18 2 -9 14 20 3 5 12 5 -2 1 0 -16 -12 22 27 12 27 27 3 7 19 13 10 9 9 14
4 3 4 6 7 7 8 8 10 11 11 11 8 7 8 8 9 11 18 27 24 10 4 7 14 20 19 20 23 18 12 13 14 15 16 17 20 19 17 20 24 23 20 16 19 27 33 33 24 21 26 21 12 9 3 2 6 4 8 12 9 20 26 9 1 4 2 -1 0 4 6 1 2 -2 -14 -8 7 18 34 30 7 7 18 15 12 7 4 6
5 3 3 4 5 6 8 8 11 11 10 10 9 8 9 8 9 15 21 25 17 2 -2 5 14 22 21 19 22 20 15 14 14 15 18 17 16 18 17 18 21 24 24 16 11 13 23 33 30 21 22 21 17 15 10 10 14 6 2 12 12 11 18 18 13 8 1 1 1 1 7 6 -0 -3 -15 -28 -23 2 29 30 6 0 14 20 16 10 8 7
8 6 5 4 5 6 8 9 11 11 9 9 10 10 10 9 10 18 24 21 11 1 -2 1 11 22 22 16 20 22 17 12 9 11 17 19 16 15 18 22 22 20 23 22 14 8 10 21 28 31 32 26 17 19 16 10 17 15 1 4 13 14 12 13 20 19 7 4 4 -3 4 10 -2 -10 -8 -18 -37 -34 1 28 17 1 8 17 16 15 16 10
Height
5872 5872 5871 5871 5871 5870 5870 5870 5870 5870 5870 5870 5870 5871 5871 5871 5871 5871 5871 5872 5872 5873 5873 5873 5873 5873 5873 5873 5874 5874 5875 5875 5876 5877 5877 5878 5879 5880 5880 5881 5881 5881 5882 5884 5885 5886 5887 5887 5888 5889 5890 5891 5891 5892 5892 5893 5893 5895 5896 5897 5897 5896 5897 5897 5897 5898 5899 5899 5899 5900 5900 5901 5900 5900 5900 5902 5903 5903 5902 5902 5902 5903 5904 5904 5905 5906 5906 5906
5870 5869 5869 5869 5868 5868 5868 5867 5867 5867 5867 5868 5868 5868 5868 5869 5869 5869 5869 5869 5870 5870 5871 5871 5871 5871 5871 5872 5872 5873 5873 5874 5874 5875 5876 5877 5878 5878 5879 5880 5880 5880 5881 5882 5883 5884 5885 5885 5886 5887 5888 5889 5889 5890 5891 5892 5893 5894 5895 5896 5896 5896 5896 5896 5896 5897 5898 5899 5899 5899 5900 5900 5900 5900 5900 5902 5902 5902 5902 5902 5902 5903 5904 5904 5905 5906 5905 5905
5867 5867 5866 5866 5866 5865 5865 5865 5865 5865 5865 5865 5865 5865 5866 5866 5867 5867 5866 5867 5867 5868 5868 5869 5869 5869 5870 5870 5870 5871 5872 5872 5873 5873 5874 5875 5876 5877 5877 5878 5879 5879 5880 5880 5881 5882 5883 5884 5885 5887 5887 5888 5888 5889 5890 5891 5892 5894 5894 5894 5895 5895 5894 5895 5896 5897 5898 5898 5899 5899 5898 5900 5900 5900 5901 5901 5901 5902 5902 5902 5903 5903 5903 5904 5905 5905 5905 5906
5865 5865 5864 5864 5863 5863 5863 5862 5862 5862 5862 5862 5862 5862 5863 5863 5864 5864 5864 5864 5865 5865 5866 5866 5867 5867 5868 5868 5869 5869 5870 5871 5872 5872 5872 5874 5874 5875 5876 5877 5877 5878 5880 5880 5881 5882 5883 5884 5885 5886 5888 5888 5889 5889 5890 5890 5891 5893 5894 5894 5894 5894 5893 5894 5896 5897 5897 5897 5898 5898 5897 5899 5900 5900 5901 5900 5900 5901 5902 5902 5903 5903 5903 5904 5905 5905 5906 5906
5863 5862 5862 5862 5861 5861 5861 5860 5860 5860 5860 5860 5860 5860 5860 5861 5861 5861 5862 5862 5862 5862 5863 5864 5864 5864 5865 5866 5867 5867 5868 5869 5870 5870 5871 5872 5872 5873 5874 5876 5876 5877 5879 5880 5881 5882 5882 5883 5884 5885 5887 5888 5889 5889 5889 5889 5890 5892 5893 5893 5894 5894 5894 5895 5896 5897 5898 5897 5898 5897 5897 5900 5901 5900 5900 5900 5901 5900 5900 5902 5902 5903 5903 5904 5904 5905 5906 5906
5860 5860 5860 5859 5859 5859 5858 5858 5858 5857 5857 5857 5857 5857 5857 5858 5858 5858 5859 5859 5860 5860 5860 5861 5861 5862 5863 5863 5864 5865 5866 5868 5868 5869 5869 5870 5870 5871 5872 5874 5875 5876 5877 5879 5880 5881 5882 5882 5883 5884 5885 5886 5888 5888 5888 5888 5889 5891 5892 5893 5893 5893 5893 5894 5895 5896 5897 5897 5898 5897 5897 5899 5900 5900 5900 5900 5901 5900 5899 5901 5902 5902 5903 5903 5904 5905 5905 5906
5858 5858 5857 5857 5857 5856 5856 5856 5855 5855 5855 5855 5855 5855 5855 5855 5856 5856 5856 5856 5857 5857 5858 5858 5859 5859 5860 5860 5862 5862 5863 5865 5866 5866 5867 5867 5868 5868 5870 5872 5873 5874 5875 5877 5878 5879 5880 5881 5882 5883 5883 5884 5885 5886 5886 5887 5889 5890 5891 5892 5892 5893 5893 5894 5895 5896 5897 5897 5898 5897 5897 5898 5899 5899 5899 5899 5900 5900 5898 5899 5900 5902 5903 5903 5904 5905 5905 5906
5856 5855 5855 5855 5854 5854 5854 5853 5853 5853 5853 5853 5853 5853 5853 5853 5853 5853 5853 5854 5854 5854 5855 5855 5856 5857 5857 5858 5859 5859 5861 5863 5863 5864 5865 5865 5865 5866 5868 5870 5871 5872 5873 5874 5876 5877 5878 5879 5880 5880 5881 5882 5883 5884 5885 5886 5888 5889 5889 5890 5891 5892 5893 5894 5895 5895 5896 5897 5897 5897 5897 5898 5898 5899 5899 5898 5898 5898 5898 5898 5899 5901 5902 5903 5904 5904 5905 5906
5853 5853 5852 5852 5851 5851 5851 5851 5851 5850 5851 5850 5850 5850 5850 5850 5850 5851 5851 5851 5851 5852 5852 5852 5853 5854 5854 5855 5856 5857 5858 5859 5860 5861 5863 5863 5863 5864 5866 5867 5868 5870 5871 5872 5873 5874 5875 5876 5877 5878 5880 5880 5881 5882 5883 5885 5885 5886 5887 5888 5890 5891 5892 5893 5894 5894 5895 5896 5896 5896 5896 5896 5897 5898 5897 5896 5896 5897 5898 5899 5900 5900 5901 5903 5904 5905 5905 5905
5850 5850 5849 5848 5848 5848 5848 5848 5848 5848 5848 5848 5848 5848 5848 5848 5848 5848 5848 5848 5848 5849 5849 5850 5850 5851 5851 5852 5853 5854 5855 5856 5857 5858 5860 5860 5860 5861 5863 5865 5866 5867 5869 5870 5871 5872 5873 5874 5875 5876 5877 5878 5879 5880 5882 5883 5882 5883 5885 5887 5889 5890 5891 5892 5893 5893 5893 5894 5894 5895 5894 5895 5896 5896 5896 5896 5897 5898 5898 5899 5900 5900 5901 5902 5904 5904 5905 5905
5847 5846 5846 5845 5845 5844 5844 5844 5844 5844 5844 5844 5845 5845 5845 5845 5845 5845 5845 5845 5846 5846 5846 5847 5847 5848 5848 5849 5850 5852 5852 5853 5854 5855 5857 5858 5858 5859 5861 5862 5864 5865 5866 5867 5869 5870 5870 5871 5872 5874 5875 5876 5878 5880 5881 5881 5880 5883 5885 5886 5888 5888 5889 5890 5891 5892 5891 5893 5894 5894 5893 5895 5895 5895 5896 5896 5897 5899 5899 5899 5899 5900 5901 5902 5903 5904 5904 5905
5843 5842 5842 5841 5841 5841 5841 5841 5841 5841 5841 5841 5841 5841 5841 5841 5842 5842 5842 5842 5843 5843 5843 5844 5844 5845 5845 5846 5847 5849 5849 5850 5852 5852 5854 5855 5855 5856 5858 5860 5861 5862 5864 5865 5866 5867 5868 5869 5871 5873 5874 5875 5877 5878 5879 5880 5880 5882 5883 5884 5886 5886 5888 5889 5890 5890 5890 5892 5893 5893 5893 5894 5895 5894 5894 5895 5897 5900 5899 5899 5899 5900 5901 5902 5902 5903 5903 5904
5839 5839 5838 5838 5837 5837 5837 5837 5837 5837 5837 5837 5837 5837 5838 5838 5838 5838 5839 5839 5839 5840 5840 5841 5841 5841 5842 5843 5844 5846 5847 5848 5849 5850 5851 5852 5853 5853 5854 5857 5858 5860 5861 5862 5863 5864 5866 5868 5870 5871 5872 5874 5875 5874 5877 5879 5879 5881 5882 5883 5884 5885 5887 5888 5889 5889 5889 5892 5892 5892 5891 5892 5893 5893 5893 5894 5898 5899 5897 5897 5898 5899 5901 5901 5902 5902 5902 5903
5836 5835 5834 5834 5833 5833 5833 5832 5833 5833 5833 5833 5833 5833 5834 5834 5834 5835 5835 5835 5836 5836 5837 5837 5838 5838 5839 5840 5841 5842 5844 5845 5846 5847 5848 5849 5850 5850 5851 5853 5855 5857 5858 5859 5860 5862 5863 5866 5867 5868 5870 5872 5872 5872 5877 5879 5879 5881 5881 5882 5883 5884 5886 5887 5887 5888 5889 5891 5890 5890 5890 5891 5892 5892 5892 5894 5898 5899 5897 5897 5898 5899 5900 5901 5901 5901 5901 5902
5832 5831 5830 5830 5829 5829 5828 5828 5828 5828 5828 5829 5829 5829 5830 5830 5830 5831 5831 5831 5832 5832 5833 5833 5834 5835 5835 5836 5837 5838 5840 5841 5843 5844 5845 5846 5847 5847 5848 5850 5852 5854 5855 5856 5858 5859 5861 5863 5865 5866 5868 5870 5870 5872 5877 5878 5878 5879 5879 5880 5883 5884 5886 5887 5886 5887 5888 5889 5888 5888 5889 5890 5891 5891 5892 5893 5896 5897 5897 5898 5898 5899 5900 5900 5899 5899 5900 5902
5828 5827 5827 5826 5826 5825 5824 5824 5824 5824 5824 5824 5825 5825 5826 5826 5826 5827 5827 5827 5828 5828 5829 5829 5830 5831 5831 5833 5834 5834 5836 5837 5839 5840 5842 5843 5844 5845 5845 5846 5848 5850 5852 5854 5855 5857 5859 5860 5862 5864 5866 5868 5869 5872 5875 5875 5876 5877 5878 5880 5882 5884 5886 5886 5885 5886 5888 5887 5886 5887 5887 5889 5889 5890 5891 5892 5893 5895 5897 5898 5897 5899 5900 5899 5898 5898 5900 5902
5824 5824 5823 5822 5822 5821 5820 5820 5820 5820 5820 5820 5821 5821 5821 5822 5822 5822 5823 5823 5823 5824 5825 5825 5826 5827 5827 5829 5830 5831 5832 5833 5835 5836 5838 5840 5841 5842 5842 5843 5845 5847 5849 5850 5852 5854 5856 5857 5859 5861 5864 5865 5867 5869 5870 5871 5874 5876 5877 5879 5881 5883 5886 5886 5885 5885 5886 5886 5885 5885 5886 5887 5888 5888 5890 5890 5891 5893 5895 5897 5897 5898 5899 5897 5896 5897 5899 5901
5820 5820 5819 5819 5818 5817 5816 5816 5816 5815 5815 5816 5816 5816 5817 5817 5818 5818 5818 5819 5819 5820 5821 5821 5822 5822 5823 5825 5826 5827 5828 5829 5831 5832 5834 5836 5837 5838 5839 5840 5841 5843 5845 5847 5849 5851 5852 5854 5856 5858 5860 5862 5864 5867 5868 5871 5874 5876 5876 5878 5880 5882 5884 5885 5885 5884 5884 5885 5884 5884 5884 5885 5887 5888 5889 5889 5889 5891 5893 5894 5895 5897 5898 5896 5895 5897 5899 5901
5816 5815 5814 5814 5814 5813 5812 5812 5811 5811 5811 5811 5811 5812 5812 5812 5813 5813 5814 5814 5815 5815 5816 5817 5817 5818 5819 5821 5822 5823 5824 5825 5827 5828 5830 5831 5833 5835 5836 5837 5838 5840 5842 5843 5845 5847 5849 5851 5852 5855 5858 5861 5864 5866 5868 5870 5871 5872 5874 5877 5878 5880 5882 5883 5884 5883 5882 5883 5883 5882 5883 5882 5884 5887 5889 5890 5890 5891 5892 5893 5894 5896 5896 5894 5894 5896 5898 5900
5811 5810 5809 5809 5809 5808 5808 5807 5807 5807 5806 5806 5807 5807 5807 5807 5808 5808 5809 5809 5810 5810 5811 5812 5813 5813 5815 5817 5818 5819 5820 5821 5822 5823 5825 5827 5829 5831 5832 5833 5835 5836 5838 5840 5842 5843 5845 5847 5849 5854 5858 5860 5861 5862 5865 5866 5865 5867 5871 5873 5875 5877 5879 5880 5882 5881 5879 5881 5882 5881 5882 5881 5881 5884 5888 5890 5890 5890 5891 5891 5893 5895 5893 5892 5894 5895 5897 5900
5806 5805 5805 5804 5804 5803 5803 5802 5802 5802 5802 5802 5802 5802 5802 5802 5803 5803 5804 5804 5804 5805 5806 5806 5808 5808 5810 5812 5813 5814 5815 5816 5818 5819 5821 5823 5825 5826 5828 5829 5831 5833 5835 5836 5837 5839 5841 5842 5847 5853 5855 5856 5857 5858 5860 5861 5861 5864 5868 5870 5872 5874 5876 5878 5879 5879 5877 5879 5880 5880 5881 5880 5880 5882 5884 5887 5889 5889 5889 5890 5892 5892 5890 5890 5893 5895 5897 5899
5801 5800 5800 5799 5798 5798 5797 5797 5797 5797 5797 5797 5797 5797 5797 5797 5797 5798 5798 5799 5799 5800 5800 5801 5802 5803 5805 5806 5807 5809 5810 5811 5813 5814 5816 5818 5820 5821 5823 5825 5827 5829 5831 5831 5832 5835 5837 5840 5846 5850 5851 5852 5853 5854 5856 5857 5859 5862 5865 5867 5869 5871 5874 5875 5875 5876 5877 5876 5877 5878 5879 5879 5880 5880 5881 5884 5887 5887 5888 5889 5890 5890 5888 5888 5891 5894 5897 5899
5796 5796 5795 5794 5794 5793 5792 5792 5792 5792 5792 5792 5792 5792 5792 5792 5792 5793 5793 5793 5794 5794 5795 5796 5796 5798 5799 5800 5802 5803 5804 5806 5808 5809 5811 5813 5814 5816 5819 5821 5823 5824 5826 5827 5829 5832 5834 5839 5844 5846 5846 5848 5849 5850 5852 5855 5856 5858 5861 5863 5866 5868 5870 5872 5873 5875 5876 5874 5875 5877 5877 5877 5878 5879 5879 5881 5884 5884 5885 5886 5888 5890 5890 5889 5890 5893 5896 5899
5791 5791 5790 5789 5789 5788 5787 5787 5786 5786 5786 5787 5787 5787 5787 5787 5787 5787 5787 5788 5788 5789 5789 5790 5791 5792 5793 5795 5796 5797 5798 5800 5802 5804 5806 5808 5808 5811 5814 5816 5818 5819 5821 5823 5825 5828 5832 5836 5839 5839 5840 5843 5844 5846 5849 5852 5853 5856 5858 5860 5862 5865 5866 5869 5871 5872 5873 5872 5872 5874 5874 5874 5876 5877 5877 5879 5881 5882 5882 5884 5886 5889 5890 5889 5891 5893 5895 5897
5787 5786 5784 5784 5784 5783 5783 5782 5781 5781 5781 5781 5781 5782 5782 5782 5782 5782 5782 5782 5782 5784 5784 5784 5786 5786 5788 5789 5790 5791 5792 5794 5796 5798 5800 5802 5804 5806 5809 5810 5813 5814 5816 5819 5821 5824 5827 5831 5833 5832 5834 5838 5840 5843 5846 5849 5850 5852 5855 5857 5859 5861 5862 5864 5866 5868 5869 5868 5868 5870 5871 5871 5873 5874 5876 5878 5879 5880 5882 5883 5885 5887 5888 5888 5889 5891 5892 5895
5782 5781 5780 5779 5778 5778 5778 5777 5777 5776 5776 5776 5776 5777 5777 5777 5777 5777 5778 5777 5776 5779 5780 5779 5781 5782 5783 5784 5784 5785 5786 5788 5791 5793 5794 5797 5799 5801 5803 5805 5808 5809 5811 5813 5815 5818 5823 5826 5827 5827 5830 5833 5836 5839 5842 5845 5847 5848 5851 5854 5855 5856 5857 5858 5861 5863 5864 5865 5868 5869 5868 5870 5872 5873 5875 5876 5876 5878 5881 5882 5883 5884 5885 5884 5885 5888 5890 5894
5778 5777 5776 5775 5774 5773 5773 5773 5772 5772 5771 5772 5772 5772 5772 5773 5773 5773 5774 5774 5772 5774 5776 5775 5775 5777 5778 5779 5779 5780 5781 5782 5785 5787 5789 5791 5793 5796 5798 5800 5802 5804 5805 5807 5810 5814 5818 5821 5823 5823 5826 5829 5832 5836 5839 5841 5843 5844 5847 5849 5850 5852 5853 5854 5857 5858 5858 5861 5864 5866 5866 5867 5869 5870 5872 5873 5874 5876 5877 5880 5881 5880 5882 5883 5884 5888 5891 5894
5774 5773 5771 5770 5769 5769 5768 5768 5768 5767 5767 5767 5767 5768 5768 5769 5769 5769 5771 5770 5768 5770 5771 5770 5771 5772 5773 5773 5774 5775 5775 5777 5779 5780 5783 5785 5787 5790 5791 5793 5796 5797 5798 5801 5805 5809 5813 5817 5819 5818 5821 5825 5829 5833 5836 5837 5838 5841 5844 5844 5846 5848 5849 5852 5853 5854 5857 5858 5858 5862 5864 5863 5865 5869 5871 5870 5871 5872 5874 5876 5878 5877 5880 5883 5884 5887 5891 5892
5769 5768 5767 5766 5765 5764 5764 5763 5763 5763 5763 5763 5763 5763 5763 5764 5765 5765 5767 5765 5764 5766 5767 5766 5767 5767 5768 5768 5769 5770 5771 5772 5773 5775 5778 5779 5781 5784 5785 5787 5790 5791 5792 5795 5800 5803 5807 5812 5814 5813 5816 5822 5826 5828 5831 5831 5833 5838 5839 5838 5841 5845 5847 5850 5850 5852 5854 5852 5853 5859 5861 5860 5863 5866 5867 5866 5867 5868 5871 5874 5875 5875 5877 5880 5883 5885 5887 5888
5765 5764 5763 5762 5761 5760 5760 5759 5759 5758 5758 5758 5759 5759 5759 5760 5760 5762 5762 5761 5761 5763 5762 5762 5763 5763 5763 5764 5764 5766 5767 5768 5769 5771 5772 5774 5776 5778 5779 5782 5785 5786 5788 5790 5794 5798 5801 5804 5807 5807 5810 5817 5820 5822 5824 5825 5828 5833 5834 5834 5839 5844 5846 5846 5847 5849 5847 5844 5849 5856 5858 5858 5860 5861 5863 5864 5866 5868 5870 5873 5874 5874 5875 5877 5880 5882 5884 5886
5761 5760 5758 5757 5756 5756 5755 5755 5755 5754 5754 5754 5754 5755 5755 5756 5757 5758 5758 5757 5758 5759 5759 5759 5759 5759 5760 5760 5760 5762 5763 5763 5765 5767 5768 5769 5771 5772 5775 5776 5777 5780 5782 5784 5788 5793 5795 5797 5801 5803 5805 5809 5814 5816 5818 5820 5823 5828 5830 5831 5835 5840 5842 5842 5843 5844 5840 5840 5848 5854 5856 5855 5853 5857 5861 5863 5865 5867 5868 5871 5873 5874 5874 5877 5880 5882 5883 5885
5757 5755 5754 5753 5752 5751 5750 5750 5750 5750 5750 5750 5750 5751 5751 5752 5754 5754 5754 5754 5755 5754 5755 5756 5755 5755 5756 5756 5756 5759 5760 5759 5762 5763 5764 5765 5766 5767 5770 5770 5771 5775 5778 5780 5783 5787 5788 5792 5797 5799 5799 5803 5808 5811 5813 5815 5819 5824 5826 5827 5831 5835 5837 5837 5838 5839 5838 5840 5847 5851 5853 5851 5849 5854 5860 5861 5864 5867 5867 5868 5871 5872 5873 5875 5880 5881 5881 5884
5752 5751 5750 5748 5748 5747 5746 5746 5746 5746 5746 5747 5747 5747 5748 5749 5750 5750 5749 5750 5751 5751 5752 5752 5751 5752 5753 5752 5753 5755 5756 5755 5758 5759 5759 5762 5762 5762 5764 5765 5767 5772 5774 5774 5777 5780 5783 5787 5790 5792 5793 5797 5803 5807 5810 5812 5816 5819 5822 5823 5826 5830 5832 5833 5834 5837 5839 5840 5844 5847 5848 5846 5846 5852 5857 5858 5861 5864 5866 5867 5869 5871 5871 5872 5876 5878 5879 5882
5748 5747 5746 5745 5744 5743 5743 5743 5743 5743 5743 5744 5744 5745 5746 5747 5747 5746 5746 5746 5747 5747 5747 5747 5747 5748 5748 5748 5749 5751 5751 5751 5754 5755 5755 5757 5758 5758 5759 5760 5763 5767 5768 5769 5772 5776 5779 5782 5784 5786 5788 5791 5797 5803 5806 5809 5811 5813 5817 5819 5821 5824 5829 5831 5833 5836 5839 5839 5841 5843 5842 5842 5845 5850 5854 5856 5857 5860 5864 5866 5866 5868 5869 5870 5873 5875 5877 5879
5745 5743 5742 5742 5741 5741 5740 5740 5740 5741 5741 5741 5742 5742 5743 5744 5743 5742 5742 5742 5743 5743 5743 5743 5743 5743 5743 5743 5745 5746 5746 5747 5750 5751 5751 5752 5753 5753 5752 5754 5759 5762 5763 5765 5767 5770 5773 5777 5781 5783 5783 5785 5791 5798 5801 5804 5806 5808 5812 5814 5815 5820 5827 5830 5831 5834 5837 5838 5838 5837 5837 5840 5844 5846 5850 5853 5854 5857 5861 5862 5862 5865 5867 5869 5870 5872 5875 5876
5742 5740 5740 5739 5739 5738 5738 5738 5738 5738 5738 5739 5739 5739 5740 5740 5739 5739 5739 5739 5739 5739 5739 5739 5739 5739 5739 5738 5739 5741 5742 5742 5744 5746 5746 5746 5747 5747 5746 5751 5756 5758 5758 5760 5763 5764 5767 5773 5776 5776 5776 5779 5784 5790 5793 5797 5801 5804 5806 5808 5811 5818 5823 5826 5827 5830 5833 5834 5834 5835 5836 5838 5840 5842 5845 5848 5852 5856 5857 5858 5861 5864 5866 5868 5869 5870 5873 5874
5739 5738 5738 5737 5737 5736 5736 5736 5736 5735 5736 5736 5736 5736 5736 5736 5736 5735 5736 5735 5735 5735 5736 5735 5734 5734 5735 5734 5734 5735 5737 5738 5738 5741 5741 5740 5740 5741 5743 5747 5751 5751 5753 5757 5758 5758 5761 5766 5769 5770 5771 5773 5776 5780 5784 5789 5796 5800 5803 5806 5810 5813 5817 5820 5822 5824 5827 5828 5829 5832 5834 5835 5835 5837 5840 5843 5849 5853 5855 5857 5861 5864 5865 5865 5868 5870 5872 5873
5737 5736 5736 5735 5735 5734 5734 5734 5733 5733 5733 5733 5733 5733 5733 5733 5732 5732 5732 5732 5731 5731 5732 5731 5729 5728 5730 5732 5730 5728 5731 5734 5733 5734 5736 5734 5733 5735 5738 5741 5744 5746 5749 5752 5753 5752 5757 5762 5764 5764 5766 5769 5771 5774 5777 5782 5788 5794 5800 5804 5805 5807 5809 5813 5815 5818 5822 5824 5826 5828 5831 5833 5833 5833 5836 5840 5846 5851 5854 5856 5860 5862 5863 5864 5866 5869 5871 5873
5736 5735 5734 5733 5733 5732 5732 5732 5731 5731 5731 5731 5732 5731 5730 5730 5730 5729 5729 5728 5728 5727 5726 5726 5725 5724 5725 5726 5725 5723 5724 5727 5728 5728 5729 5728 5727 5730 5732 5735 5738 5742 5744 5746 5747 5748 5753 5756 5757 5759 5762 5765 5768 5768 5771 5776 5782 5789 5795 5797 5798 5801 5805 5808 5811 5814 5818 5821 5824 5827 5828 5830 5831 5832 5834 5838 5842 5847 5851 5854 5857 5860 5861 5862 5864 5866 5869 5871
5734 5733 5733 5732 5732 5731 5730 5730 5730 5730 5730 5730 5729 5728 5728 5727 5726 5725 5725 5723 5723 5723 5721 5721 5721 5720 5719 5719 5719 5719 5718 5719 5721 5723 5722 5721 5722 5723 5725 5728 5732 5736 5739 5741 5743 5745 5747 5749 5752 5756 5757 5759 5762 5763 5766 5772 5779 5784 5788 5789 5791 5794 5799 5804 5806 5809 5814 5818 5821 5825 5826 5829 5831 5830 5832 5836 5840 5843 5848 5852 5855 5857 5858 5858 5861 5865 5867 5869
5733 5732 5732 5731 5730 5730 5729 5729 5728 5728 5728 5727 5726 5725 5724 5723 5722 5722 5721 5719 5719 5718 5717 5717 5715 5715 5715 5714 5712 5713 5712 5711 5713 5716 5716 5715 5716 5715 5715 5721 5727 5730 5734 5737 5737 5737 5738 5741 5746 5749 5750 5753 5758 5761 5763 5768 5773 5779 5782 5784 5787 5791 5795 5799 5801 5803 5809 5813 5817 5821 5825 5830 5832 5829 5828 5832 5837 5840 5845 5849 5852 5855 5856 5855 5857 5862 5864 5865
5732 5732 5731 5730 5729 5729 5728 5727 5727 5726 5725 5724 5723 5723 5721 5720 5719 5718 5716 5715 5714 5713 5713 5712 5710 5709 5709 5708 5706 5705 5705 5705 5705 5708 5708 5708 5708 5705 5706 5714 5720 5722 5726 5729 5728 5727 5731 5736 5741 5744 5746 5748 5752 5755 5757 5759 5765 5771 5775 5779 5783 5787 5791 5795 5797 5801 5806 5809 5813 5816 5820 5827 5830 5826 5824 5827 5833 5837 5841 5845 5849 5852 5853 5853 5855 5860 5861 5863
5732 5732 5731 5730 5729 5728 5727 5726 5725 5724 5723 5722 5721 5720 5719 5717 5716 5714 5713 5712 5710 5709 5708 5707 5705 5704 5702 5701 5699 5698 5697 5698 5698 5699 5700 5699 5697 5696 5700 5706 5711 5714 5718 5719 5718 5721 5728 5733 5737 5740 5742 5744 5746 5748 5750 5753 5756 5761 5766 5772 5776 5780 5786 5790 5795 5801 5805 5807 5810 5812 5814 5822 5825 5821 5821 5825 5829 5834 5838 5842 5846 5848 5849 5851 5853 5856 5858 5861
5732 5732 5731 5730 5728 5727 5726 5725 5724 5722 5721 5720 5719 5718 5716 5715 5713 5711 5710 5709 5706 5705 5703 5701 5700 5698 5695 5693 5691 5689 5688 5689 5690 5690 5691 5689 5687 5689 5694 5697 5702 5706 5707 5707 5710 5718 5725 5728 5730 5734 5737 5739 5743 5745 5747 5751 5752 5754 5760 5766 5769 5773 5780 5786 5791 5796 5798 5801 5806 5809 5811 5818 5821 5817 5817 5821 5825 5831 5835 5838 5842 5844 5846 5848 5851 5853 5856 5858
5732 5731 5730 5729 5728 5726 5725 5723 5722 5721 5719 5718 5717 5715 5714 5712 5711 5708 5707 5705 5702 5700 5698 5695 5693 5690 5687 5684 5683 5681 5680 5681 5682 5681 5682 5682 5680 5682 5685 5689 5693 5695 5696 5701 5707 5714 5718 5719 5721 5726 5728 5733 5737 5738 5740 5743 5744 5747 5753 5759 5763 5768 5774 5781 5785 5787 5788 5792 5799 5803 5807 5814 5818 5816 5815 5816 5821 5828 5832 5834 5838 5841 5843 5845 5848 5850 5853 5854
5732 5731 5729 5728 5726 5725 5724 5722 5721 5719 5718 5716 5715 5713 5711 5709 5707 5705 5703 5700 5698 5695 5692 5689 5686 5682 5680 5678 5677 5676 5675 5675 5675 5675 5676 5676 5676 5675 5677 5682 5685 5685 5689 5696 5701 5704 5708 5709 5714 5718 5721 5726 5729 5728 5730 5734 5737 5741 5746 5752 5759 5763 5769 5775 5777 5778 5782 5788 5792 5796 5801 5806 5812 5815 5815 5814 5819 5826 5830 5833 5836 5838 5840 5842 5843 5845 5848 5850
5731 5730 5728 5727 5725 5724 5722 5721 5719 5717 5716 5714 5712 5710 5708 5706 5704 5701 5699 5696 5692 5689 5686 5683 5680 5678 5675 5674 5672 5671 5670 5670 5670 5670 5671 5671 5671 5670 5672 5676 5678 5678 5683 5689 5692 5695 5698 5701 5707 5712 5715 5720 5723 5723 5726 5729 5732 5736 5739 5743 5748 5754 5761 5766 5767 5770 5777 5783 5786 5791 5796 5800 5805 5811 5813 5812 5817 5823 5825 5828 5830 5832 5834 5835 5837 5841 5845 5848
5730 5729 5727 5726 5724 5723 5721 5719 5717 5716 5714 5712 5710 5708 5705 5703 5700 5697 5694 5691 5687 5684 5681 5679 5677 5674 5672 5670 5668 5667 5667 5667 5666 5667 5667 5667 5666 5667 5669 5672 5673 5674 5678 5681 5684 5687 5689 5693 5700 5704 5706 5712 5716 5718 5720 5721 5724 5728 5731 5734 5738 5743 5749 5753 5758 5764 5771 5775 5781 5788 5793 5797 5802 5807 5808 5808 5812 5815 5817 5821 5824 5826 5827 5828 5832 5838 5843 5846
5729 5727 5726 5724 5723 5721 5719 5717 5715 5714 5712 5710 5707 5705 5702 5700 5696 5693 5690 5686 5683 5681 5679 5676 5674 5672 5669 5668 5666 5665 5665 5665 5664 5664 5664 5664 5664 5664 5666 5668 5668 5670 5673 5675 5678 5680 5682 5687 5693 5695 5698 5702 5706 5709 5712 5713 5717 5722 5725 5729 5733 5738 5742 5746 5751 5759 5764 5768 5775 5782 5787 5792 5796 5798 5799 5801 5805 5808 5812 5817 5821 5822 5824 5826 5830 5836 5841 5844
5728 5726 5724 5723 5721 5720 5718 5715 5713 5712 5709 5707 5705 5702 5699 5696 5693 5689 5686 5683 5681 5679 5677 5675 5673 5671 5668 5666 5664 5663 5663 5663 5662 5662 5662 5661 5662 5662 5663 5664 5664 5666 5668 5671 5672 5674 5676 5680 5684 5687 5689 5693 5698 5703 5706 5709 5713 5718 5721 5725 5729 5734 5738 5742 5746 5751 5756 5761 5768 5775 5779 5784 5788 5790 5792 5796 5800 5804 5809 5812 5814 5817 5820 5823 5826 5831 5833 5835
5726 5724 5723 5721 5719 5717 5715 5713 5712 5710 5707 5705 5702 5699 5696 5693 5690 5687 5683 5681 5679 5677 5675 5674 5672 5669 5667 5665 5663 5662 5661 5661 5660 5660 5659 5659 5660 5660 5660 5660 5661 5662 5664 5666 5668 5669 5671 5674 5677 5680 5681 5685 5692 5698 5702 5706 5710 5711 5715 5719 5724 5728 5733 5738 5741 5744 5750 5756 5762 5766 5769 5776 5783 5785 5787 5792 5795 5798 5803 5806 5809 5813 5817 5820 5823 5826 5828 5829
5724 5723 5721 5719 5717 5715 5713 5712 5709 5707 5705 5702 5700 5697 5694 5691 5688 5684 5681 5679 5678 5676 5674 5672 5671 5668 5666 5664 5662 5661 5660 5659 5659 5658 5657 5657 5657 5657 5657 5657 5658 5659 5660 5662 5664 5665 5667 5669 5672 5674 5676 5682 5688 5691 5695 5700 5700 5700 5707 5715 5720 5723 5728 5732 5736 5741 5747 5751 5755 5758 5762 5770 5778 5778 5781 5788 5791 5793 5799 5802 5805 5810 5814 5816 5819 5822 5824 5827